Home   Weather   Hirtshals   Past weeks
Flag for Denmark

Past Weather in Hirtshals, Denmark — Yesterday and Last 2 Weeks

Now
62 °F

Cool.


Feels Like: 62 °F
Forecast: 64 / 58 °F
Wind: 7 mph from Southwest

Location: Aalborg

Current Time: Jul 21, 2019 at 9:27:29 am

Latest Report: Jul 21, 2019 at 8:00 am


Visibility: N/A

Pressure: 29.81 "Hg

Humidity: 95%

Dew Point: 61 °F

Location of HirtshalsLocation

Past Weather in Hirtshals — Graph

°F

Hirtshals Temperature Yesterday

Maximum temperature yesterday: 71 °F (at 6:00 pm)
Minimum temperature yesterday: 53 °F (at 4:00 am)
Average temperature yesterday: 63 °F

High & Low Weather Summary for the Past Weeks

 TemperatureHumidityPressure
High74 °F (Jul 18, 5:00 pm)100% (Jul 13, 3:00 am)30.03 "Hg (Jul 13, 3:00 am)
Low46 °F (Jul 11, 6:00 am)41% (Jul 16, 3:00 pm)29.47 "Hg (Jul 6, 8:00 pm)
Average61 °F81%29.88 "Hg
* Reported Jul 6 8:00 am — Jul 21 8:00 am, Hirtshals. Weather by CustomWeather, © 2019

Note: Actual official high and low records may vary slightly from our data, if they occured in-between our weather recording intervals... More about our weather records

Advertising

Hirtshals Weather History for the Previous 24 Hours

Scroll right to see more
 ConditionsComfort  
Time TempWeatherWind HumidityBarometerVisibility
8:00 am
Sun, Jul 21
62 °FCool.7 mph95%29.81 "HgN/A
7:00 am61 °FCool.8 mph93%29.80 "HgN/A
6:00 am61 °FCool.9 mph98%29.80 "HgN/A
5:00 am62 °FCool.5 mph99%29.80 "Hg5 mi
4:00 am62 °FCool.6 mph99%29.80 "Hg1 mi
3:00 am62 °FCool.7 mph98%29.80 "Hg4 mi
2:00 am62 °FCool.6 mph98%29.80 "HgN/A
1:00 am63 °FMild.3 mph98%29.80 "Hg3 mi
12:00 am63 °FMild.5 mph98%29.81 "Hg4 mi
11:00 pm
Sat, Jul 20
63 °FMild.7 mph97%29.82 "Hg5 mi
10:00 pm63 °FMild.6 mph96%29.81 "HgN/A
9:00 pm63 °FMild.5 mph96%29.82 "HgN/A
8:00 pm65 °FMild.13 mph89%29.82 "HgN/A
7:00 pm70 °FMild.15 mph68%29.79 "HgN/A
6:00 pm71 °FMild.16 mph67%29.81 "HgN/A
5:00 pm70 °FMild.16 mph69%29.82 "HgN/A
4:00 pm70 °FMild.16 mph69%29.85 "HgN/A
3:00 pm70 °FMild.16 mph66%29.85 "HgN/A
2:00 pm68 °FMild.13 mph70%29.87 "HgN/A
1:00 pm66 °FMild.15 mph79%29.88 "HgN/A
12:00 pm67 °FMild.15 mph77%29.88 "HgN/A
11:00 am65 °FMild.14 mph83%29.89 "HgN/A
10:00 am64 °FMild.12 mph84%29.90 "HgN/A
9:00 am64 °FMild.9 mph82%29.91 "HgN/A
Weather by CustomWeather, © 2019

See weather overview